Fri, 03 Dec 2021 07:53:09 UTC

Information for RPM brotli-1.0.7-14.fc33.ppc64le.rpm

ID22785376
Namebrotli
Version1.0.7
Release14.fc33
Epoch
Archppc64le
SummaryLossless compression algorithm
DescriptionBrotli is a generic-purpose lossless compression algorithm that compresses data using a combination of a modern variant of the LZ77 algorithm, Huffman coding and 2nd order context modeling, with a compression ratio comparable to the best currently available general-purpose compression methods. It is similar in speed with deflate but offers more dense compression.
Build Time2020-08-12 01:17:37 GMT
Size355,164
3b08984886cdd1faad48550b17f6a026
LicenseMIT
Buildrootf33-build-22132591-1880521
Provides
brotli = 1.0.7-14.fc33
brotli(ppc-64) = 1.0.7-14.fc33
Obsoletes No Obsoletes
Conflicts No Conflicts
Requires
libbrotli(ppc-64) = 1.0.7-14.fc33
libc.so.6()(64bit)
libc.so.6(GLIBC_2.17)(64bit)
libm.so.6()(64bit)
libm.so.6(GLIBC_2.29)(64bit)
rpmlib(CompressedFileNames) <= 3.0.4-1
rpmlib(FileDigests) <= 4.6.0-1
rpmlib(PayloadFilesHavePrefix) <= 4.0-1
rpmlib(PayloadIsZstd) <= 5.4.18-1
rtld(GNU_HASH)
Recommends No Recommends
Suggests No Suggests
Supplements No Supplements
Enhances No Enhances
Files
1 through 4 of 4
Name ascending sort Size
/usr/bin/brotli792,888
/usr/lib/.build-id0
/usr/lib/.build-id/640
/usr/lib/.build-id/64/09040098dca55f4ba89169a8db731c867cd63526
Component of
Page:
1 through 50 of 13097 >>>
Buildroot descending sort Created State
f33-build-23567815-2297980 2020-10-23 20:15:06 expired
f33-build-23566151-2297897 2020-10-23 19:02:02 expired
f33-build-23565114-2297513 2020-10-23 18:17:23 expired
f33-build-23565024-2297513 2020-10-23 18:13:17 expired
f33-build-23564305-2297513 2020-10-23 17:35:44 expired
f33-build-23563769-2297327 2020-10-23 17:00:41 expired
f33-build-23563763-2297327 2020-10-23 17:00:31 expired
f33-build-23563683-2297327 2020-10-23 16:55:08 expired
f33-build-23563668-2297327 2020-10-23 16:54:55 expired
f33-build-23563589-2297327 2020-10-23 16:48:19 expired
f33-build-23563562-2297157 2020-10-23 16:43:37 expired
f33-build-23563428-2297157 2020-10-23 16:33:22 expired
f33-build-23563347-2297157 2020-10-23 16:23:14 expired
f33-build-23563332-2296509 2020-10-23 16:19:41 expired
f33-build-23563129-2296509 2020-10-23 16:05:46 expired
f33-build-23562611-2296509 2020-10-23 15:33:28 expired
f33-build-23561954-2296509 2020-10-23 14:58:40 expired
f33-build-23561624-2296509 2020-10-23 14:43:11 expired
f33-build-23561565-2296509 2020-10-23 14:37:16 expired
f33-build-23561469-2296509 2020-10-23 14:33:59 expired
f33-build-23559124-2295765 2020-10-23 11:38:50 expired
f33-build-23559109-2295765 2020-10-23 11:38:29 expired
f33-build-23559091-2295765 2020-10-23 11:37:47 expired
f33-build-23559060-2295765 2020-10-23 11:37:14 expired
f33-build-23558996-2295765 2020-10-23 11:31:59 expired
f33-build-23558825-2295765 2020-10-23 11:21:30 expired
f33-build-23558637-2295068 2020-10-23 10:45:52 expired
f33-build-23558594-2295068 2020-10-23 10:44:21 expired
f33-build-23558537-2295068 2020-10-23 10:39:15 expired
f33-build-23558402-2295068 2020-10-23 10:33:37 expired
f33-build-23558286-2295068 2020-10-23 10:27:19 expired
f33-build-23556731-2295068 2020-10-23 09:07:10 expired
f33-build-23556729-2295068 2020-10-23 09:07:04 expired
f33-build-23556712-2295068 2020-10-23 09:06:46 expired
f33-build-23556700-2295068 2020-10-23 09:06:36 expired
f33-build-23556693-2295068 2020-10-23 09:06:27 expired
f33-build-23556681-2295068 2020-10-23 09:06:17 expired
f33-build-23556175-2293568 2020-10-23 08:39:05 expired
f33-build-23556072-2293568 2020-10-23 08:34:37 expired
f33-build-23554783-2293568 2020-10-23 07:25:25 expired
f33-build-23553988-2293568 2020-10-23 06:40:43 expired
f33-build-23553968-2293568 2020-10-23 06:38:37 expired
f33-build-23553279-2293568 2020-10-23 06:14:13 expired
f33-build-23553277-2293568 2020-10-23 06:14:11 expired
f33-build-23553253-2293568 2020-10-23 06:13:29 expired
f33-build-23553241-2293568 2020-10-23 06:13:08 expired
f33-build-23550886-2293568 2020-10-23 04:50:53 expired
f33-build-23550880-2293568 2020-10-23 04:50:34 expired
f33-build-23550067-2293568 2020-10-23 04:21:05 expired
f33-build-23549617-2293568 2020-10-23 04:01:35 expired